ITY64C ESSA-LIMC

Flight info

Callsign ITY64C
Flight time N/A
Altitude 36000
Route NOSLI N850 ABAMA DCT MAKEL DCT TOLGI DCT BOMBI DCT GIGET DCT ABUKA DCT KRH DCT NATOR/N0456F370 DCT TRA DCT RIPUS DCT GERSA DCT SOSON DCT DEGAD Z424 BASGO/N0464F290 Z424 AKASU/N0396F190 Z424 RIXUV
Aircraft A320/M-SDE3FGHIRWY/LB1

Departure

Time 2026-05-05 18:17
Airport Stockholm-Arlanda Airport (ESSA)

Arrival

Time N/A
Airport Milan Malpensa International Airport (LIMC)
Time Latitude Longitude Altitude Speed Heading
2026-05-05 17:42 59.65143 17.92697 112 ft 0 kts 191°
2026-05-05 18:06 59.65158 17.92703 112 ft 4 kts 191°
2026-05-05 18:06 59.65193 17.92716 112 ft 4 kts 190°
2026-05-05 18:06 59.65220 17.92725 112 ft 4 kts 189°
2026-05-05 18:07 59.65246 17.92734 108 ft 3 kts 189°
2026-05-05 18:07 59.65249 17.92735 108 ft 0 kts 189°
2026-05-05 18:09 59.65248 17.92734 109 ft 1 kts 192°
2026-05-05 18:10 59.65244 17.92684 111 ft 8 kts 283°
2026-05-05 18:10 59.65269 17.92536 112 ft 12 kts 289°
2026-05-05 18:10 59.65213 17.92391 112 ft 19 kts 197°
2026-05-05 18:10 59.65066 17.92335 112 ft 23 kts 193°
2026-05-05 18:11 59.64927 17.92285 112 ft 20 kts 190°
2026-05-05 18:11 59.64775 17.92229 112 ft 25 kts 190°
2026-05-05 18:11 59.64625 17.92176 111 ft 23 kts 191°
2026-05-05 18:11 59.64474 17.92120 113 ft 16 kts 191°
2026-05-05 18:12 59.64363 17.92076 114 ft 14 kts 201°
2026-05-05 18:12 59.64318 17.91919 113 ft 15 kts 227°
2026-05-05 18:12 59.64198 17.91855 114 ft 21 kts 190°
2026-05-05 18:12 59.64044 17.91799 113 ft 26 kts 190°
2026-05-05 18:13 59.63903 17.91747 110 ft 18 kts 190°
2026-05-05 18:13 59.63808 17.91652 107 ft 7 kts 220°
2026-05-05 18:13 59.63783 17.91609 107 ft 6 kts 220°
2026-05-05 18:13 59.63781 17.91605 107 ft 0 kts 220°
2026-05-05 18:16 59.63773 17.91593 105 ft 7 kts 220°
2026-05-05 18:16 59.63726 17.91468 108 ft 13 kts 261°
2026-05-05 18:16 59.63783 17.91345 110 ft 15 kts
2026-05-05 18:17 59.64006 17.91423 109 ft 64 kts 11°
2026-05-05 18:17 59.64653 17.91658 111 ft 123 kts 10°
2026-05-05 18:17 59.65646 17.92018 162 ft 163 kts 10°
2026-05-05 18:17 59.66761 17.92407 796 ft 162 kts
2026-05-05 18:18 59.67849 17.92781 1404 ft 168 kts
2026-05-05 18:18 59.69033 17.92303 1704 ft 186 kts 322°
2026-05-05 18:18 59.69713 17.90098 2139 ft 198 kts 278°
2026-05-05 18:18 59.69600 17.87358 2849 ft 201 kts 262°
2026-05-05 18:19 59.69369 17.84634 3650 ft 202 kts 262°
2026-05-05 18:19 59.69136 17.81887 4440 ft 202 kts 262°
2026-05-05 18:19 59.68906 17.79139 5202 ft 203 kts 262°
2026-05-05 18:19 59.68578 17.76413 5796 ft 215 kts 255°
2026-05-05 18:20 59.68107 17.73450 6118 ft 238 kts 254°
2026-05-05 18:20 59.67588 17.70211 6612 ft 253 kts 254°
2026-05-05 18:20 59.66832 17.67024 7359 ft 261 kts 236°
2026-05-05 18:20 59.65470 17.64606 8155 ft 270 kts 212°
2026-05-05 18:21 59.63693 17.63257 8972 ft 276 kts 202°
2026-05-05 18:21 59.61997 17.61577 9767 ft 274 kts 217°
2026-05-05 18:21 59.60380 17.59438 10227 ft 289 kts 217°
2026-05-05 18:21 59.58644 17.57134 10423 ft 312 kts 217°
2026-05-05 18:22 59.56773 17.54651 10554 ft 335 kts 218°
2026-05-05 18:22 59.54804 17.52043 11004 ft 345 kts 218°
2026-05-05 18:22 59.52799 17.49397 11692 ft 348 kts 218°
2026-05-05 18:22 59.50780 17.46748 12409 ft 350 kts 218°
2026-05-05 18:23 59.48748 17.44085 13142 ft 351 kts 219°
2026-05-05 18:23 59.46734 17.41446 13812 ft 354 kts 219°
2026-05-05 18:23 59.44682 17.38764 14487 ft 353 kts 219°
2026-05-05 18:23 59.42638 17.36095 15198 ft 352 kts 220°
2026-05-05 18:24 59.40599 17.33440 15939 ft 351 kts 220°
2026-05-05 18:24 59.38572 17.30801 16672 ft 349 kts 221°
2026-05-05 18:24 59.36551 17.28169 17422 ft 348 kts 221°
2026-05-05 18:24 59.34546 17.25559 18139 ft 347 kts 221°
2026-05-05 18:25 59.32537 17.22944 18708 ft 347 kts 221°
2026-05-05 18:25 59.31857 17.22060 18805 ft 348 kts 221°
2026-05-05 18:25 59.28470 17.17660 19510 ft 355 kts 221°
2026-05-05 18:25 59.26401 17.14982 19968 ft 358 kts 221°
2026-05-05 18:26 59.24314 17.12286 20411 ft 360 kts 220°
2026-05-05 18:26 59.22215 17.09575 20843 ft 363 kts 220°
2026-05-05 18:26 59.20102 17.06845 21278 ft 365 kts 220°
2026-05-05 18:26 59.17972 17.04096 21703 ft 368 kts 220°
2026-05-05 18:27 59.15827 17.01335 22116 ft 370 kts 220°
2026-05-05 18:27 59.13673 16.98568 22521 ft 373 kts 220°
2026-05-05 18:27 59.11510 16.95799 22890 ft 375 kts 220°
2026-05-05 18:27 59.09301 16.92978 23263 ft 378 kts 220°
2026-05-05 18:28 59.05632 16.88300 23754 ft 382 kts 220°
2026-05-05 18:28 59.02676 16.84549 24147 ft 385 kts 220°
2026-05-05 18:28 59.01163 16.82627 24362 ft 386 kts 220°
2026-05-05 18:29 58.98914 16.79770 24655 ft 387 kts 220°
2026-05-05 18:29 58.96649 16.76900 24958 ft 389 kts 220°
2026-05-05 18:29 58.94378 16.74029 25249 ft 391 kts 220°
2026-05-05 18:29 58.92096 16.71144 25571 ft 392 kts 220°
2026-05-05 18:30 58.89801 16.68247 25836 ft 394 kts 220°
2026-05-05 18:30 58.87499 16.65345 26106 ft 396 kts 220°
2026-05-05 18:30 58.85188 16.62434 26374 ft 397 kts 220°
2026-05-05 18:30 58.82868 16.59520 26625 ft 399 kts 220°
2026-05-05 18:31 58.80544 16.56610 26791 ft 401 kts 219°
2026-05-05 18:31 58.78191 16.53669 27010 ft 403 kts 219°
2026-05-05 18:31 58.75843 16.50741 27232 ft 404 kts 219°
2026-05-05 18:31 58.73476 16.47799 27462 ft 406 kts 219°
2026-05-05 18:32 58.71106 16.44855 27718 ft 406 kts 219°
2026-05-05 18:32 58.70304 16.43862 27827 ft 406 kts 219°